Regional Weather Roundup
Issued by NWS

Home | Current Version | Previous Version | Text Only | Print | Product List | Glossary Off
Versions: 1 2 3 4 5 6 7 8 9 10 11 12 13 14 15 16 17 18 19 20 21 22 23 24 25 26 27 28 29 30 31 32 33 34 35 36 37 38 39 40 41 42 43 44 45 46 47 48 49 50

000
ASUS43 KFSD 290202
RWRSD

WEATHER ROUNDUP FOR SOUTH DAKOTA
NATIONAL WEATHER SERVICE SIOUX FALLS SD
900 PM CDT THU AUG 28 2014

NOTE: "FAIR" INDICATES FEW OR NO CLOUDS BELOW 12,000 FEET WITH NO
SIGNIFICANT WEATHER AND/OR OBSTRUCTIONS TO VISIBILITY.


SDZ001>005-009-010-012>017-290300-
NORTHWEST AND NORTH CENTRAL SOUTH DAKOTA

CITY           SKY/WX    TMP DP  RH WIND       PRES   REMARKS
BUFFALO          N/A     74  54  49 S7        29.83S
FAITH            N/A     67  63  87 S9        29.89R
MOBRIDGE       MOCLDY    65  65 100 NE5       29.84S
$$

SDZ012>016-024>037-041>051-057-063-072>074-290300-
SOUTHWEST AND SOUTH CENTRAL SOUTH DAKOTA

CITY           SKY/WX    TMP DP  RH WIND       PRES   REMARKS
RAPID CTY ARPT CLOUDY    68  61  78 SE5       29.93R
PIERRE         CLOUDY    70  68  93 N5        29.83F
CUSTER         MOCLDY    61  54  77 S6        30.06S
ELLSWORTH AFB  MOCLDY    69  61  75 S6        29.93R
PHILIP         MOCLDY    67  62  84 W5        29.88S
PINE RIDGE     MOCLDY    64  56  75 W6        29.95R
WINNER         FAIR      69  67  93 W6        29.88R
$$

SDZ004>011-016>023-039-040-290300-
NORTHEAST SOUTH DAKOTA

CITY           SKY/WX    TMP DP  RH WIND       PRES   REMARKS
ABERDEEN       RAIN      65  65 100 E12       29.85F FOG
WATERTOWN      CLOUDY    65  64  97 E8        29.86F FOG
SISSETON         N/A     66  65  96 SE7       29.86F
$$

SDZ017-020-022-023-036>040-048>070-290300-
SOUTHEAST SOUTH DAKOTA

CITY           SKY/WX    TMP DP  RH WIND       PRES   REMARKS
SIOUX FALLS    CLOUDY    71  69  93 E7        29.83S FOG
HURON          CLOUDY    69  68  96 NE3       29.81F
CHAMBERLAIN    MOCLDY    70  68  92 CALM      29.83S
MITCHELL       MOCLDY    71  70  96 E7        29.82R
YANKTON        MOCLDY    75  72  88 CALM      29.80R
$$

ABBREVIATIONS USED IN REMARKS
   TC - TEMPERATURE IN CELSIUS
  WCI - WIND CHILL INDEX
   HX - HEAT INDEX
  VSB - VISIBILITY




USA.gov is the U.S. government's official web portal to all federal, state and local government web resources and services.